Weather History for Spokane Fairchild, WA

Change the Weather History Date:

Thursday, March 20, 2014

  Actual Average Record
Temperature  
Mean Temperature 35 °F -  
Max Temperature 45 °F 48 °F 71 °F (1999)
Min Temperature 26 °F 30 °F 19 °F (2002)
Degree Days  
Heating Degree Days 30    
Moisture  
Dew Point 20 °F    
Average Humidity 58    
Maximum Humidity 80    
Minimum Humidity 29    
Precipitation  
Precipitation 0.00 in - - ()
Sea Level Pressure  
Sea Level Pressure 30.13 in    
Wind  
Wind Speed 14 mph (WSW)    
Max Wind Speed 22 mph    
Max Gust Speed 25 mph    
Visibility 10 miles    
Events      
Averages and records for this station are not official NWS values.
T = Trace of Precipitation, MM = Missing Value Source: NWS Daily Summary

Daily Weather History Graph

Daily Weather History Graph

Search for Another Location

Airport:

Trip Planner

Search our weather history database for the weather conditions in past years. The results will help you decide how hot, cold, wet, or windy it might be!

Date:

Astronomy

Mar. 20, 2014 Rise Set
Actual Time 6:53 AM PDT 7:03 PM PDT
Civil Twilight 6:22 AM PDT 7:34 PM PDT
Nautical Twilight 5:46 AM PDT 8:10 PM PDT
Astronomical Twilight 5:09 AM PDT 8:47 PM PDT
Moon 11:46 PM PDT (3/20) 8:46 AM PDT (3/20)
Length of Visible Light 13h 11m
Length of Day
12h 10m
Waning Gibbous, 83% of the Moon is Illuminated
Mar 20
Waning Gibbous
Mar 23
Last Quarter
Mar 30
New
Apr 7
First Quarter
Apr 15
Full

Hourly Weather History & Observations

Time (PDT) Temp. Windchill Dew Point Humidity Pressure Visibility Wind Dir Wind Speed Gust Speed Precip Events Conditions
12:41 AM 32.0 °F 20.5 °F 21.2 °F 64% 29.94 in 10.0 mi WSW 18.4 mph - N/A   Clear
12:58 AM 30.7 °F 20.0 °F 21.2 °F 68% 29.99 in 10.0 mi WSW 15.0 mph - 0.00 in   Clear
1:18 AM 32.0 °F 21.6 °F 21.2 °F 64% 29.94 in 10.0 mi SW 15.0 mph 24.2 mph N/A   Clear
1:48 AM 30.2 °F 17.4 °F 21.2 °F 69% 29.96 in 10.0 mi WSW 20.7 mph - N/A   Clear
1:52 AM 30.2 °F 17.1 °F 21.2 °F 69% 29.96 in 10.0 mi WSW 21.9 mph - N/A   Clear
1:58 AM 30.2 °F 17.4 °F 20.7 °F 68% 30.02 in 10.0 mi WSW 20.7 mph - 0.00 in   Clear
2:40 AM 30.2 °F 18.5 °F 19.4 °F 64% 29.97 in 10.0 mi WSW 17.3 mph - N/A   Clear
2:58 AM 29.3 °F 17.7 °F 19.8 °F 68% 30.04 in 10.0 mi WSW 16.1 mph - 0.00 in   Clear
3:19 AM 28.4 °F 15.8 °F 19.4 °F 69% 29.99 in 10.0 mi WSW 18.4 mph - N/A   Clear
3:48 AM 30.2 °F 18.5 °F 19.4 °F 64% 30.00 in 10.0 mi WSW 17.3 mph - N/A   Clear
3:58 AM 28.9 °F 17.3 °F 19.2 °F 67% 30.07 in 10.0 mi WSW 16.1 mph - 0.00 in   Clear
4:44 AM 28.4 °F 17.5 °F 19.4 °F 69% 30.02 in 10.0 mi WSW 13.8 mph - N/A   Clear
4:58 AM 28.0 °F 16.5 °F 19.9 °F 72% 30.07 in 10.0 mi WSW 15.0 mph - 0.00 in   Mostly Cloudy
5:11 AM 28.4 °F 17.5 °F 19.4 °F 69% 30.03 in 10.0 mi WSW 13.8 mph - N/A   Mostly Cloudy
5:34 AM 26.6 °F 14.7 °F 19.4 °F 74% 30.03 in 10.0 mi WSW 15.0 mph - N/A   Partly Cloudy
5:41 AM 26.6 °F 14.7 °F 19.4 °F 74% 30.03 in 10.0 mi WSW 15.0 mph - N/A   Partly Cloudy
5:58 AM 26.8 °F 16.5 °F 20.1 °F 76% 30.11 in 10.0 mi WSW 11.5 mph - 0.00 in   Clear
6:58 AM 26.1 °F 16.2 °F 19.8 °F 77% 30.13 in 10.0 mi SW 10.4 mph - N/A   Scattered Clouds
7:11 AM 26.6 °F 16.2 °F 19.4 °F 74% 30.07 in 10.0 mi SW 11.5 mph - N/A   Mostly Cloudy
7:27 AM 26.6 °F 16.2 °F 21.2 °F 80% 30.08 in 10.0 mi SW 11.5 mph - N/A   Scattered Clouds
7:58 AM 27.9 °F 17.8 °F 20.7 °F 74% 30.14 in 10.0 mi SW 11.5 mph - 0.00 in   Mostly Cloudy
8:21 AM 30.2 °F 20.2 °F 21.2 °F 69% 30.09 in 10.0 mi SW 12.7 mph - N/A   Overcast
8:32 AM 32.0 °F 23.6 °F 21.2 °F 64% 30.10 in 10.0 mi WSW 10.4 mph - N/A   Overcast
8:39 AM 32.0 °F 23.0 °F 23.0 °F 69% 30.10 in 10.0 mi WSW 11.5 mph - N/A   Overcast
8:40 AM 32.0 °F 22.5 °F 23.0 °F 69% 30.10 in 10.0 mi WSW 12.7 mph - N/A   Overcast
8:48 AM 32.0 °F 22.1 °F 23.0 °F 69% 30.10 in 10.0 mi WSW 13.8 mph - N/A   Overcast
8:49 AM 32.0 °F 22.5 °F 23.0 °F 69% 30.10 in 10.0 mi WSW 12.7 mph - N/A   Overcast
8:50 AM 32.0 °F 22.5 °F 23.0 °F 69% 30.10 in 10.0 mi WSW 12.7 mph - N/A   Overcast
8:58 AM 31.1 °F 21.9 °F 22.5 °F 70% 30.17 in 10.0 mi SW 11.5 mph - 0.00 in   Overcast
8:59 AM 32.0 °F 23.0 °F 23.0 °F 69% 30.10 in 10.0 mi SW 11.5 mph - N/A   Overcast
9:14 AM 32.0 °F 23.0 °F 23.0 °F 69% 30.11 in 10.0 mi SW 11.5 mph - N/A   Overcast
9:38 AM 33.8 °F 24.3 °F 23.0 °F 65% 30.12 in 10.0 mi WSW 13.8 mph - N/A   Overcast
9:58 AM 33.6 °F 24.1 °F 23.0 °F 65% 30.19 in 10.0 mi WSW 13.8 mph - 0.00 in   Overcast
10:21 AM 37.4 °F 28.9 °F 23.0 °F 56% 30.13 in 10.0 mi WSW 13.8 mph - N/A   Partly Cloudy
10:37 AM 37.4 °F 29.3 °F 23.0 °F 56% 30.14 in 10.0 mi West 12.7 mph - N/A   Scattered Clouds
10:41 AM 37.4 °F 29.3 °F 23.0 °F 56% 30.14 in 10.0 mi West 12.7 mph - N/A   Scattered Clouds
10:42 AM 37.4 °F 29.3 °F 23.0 °F 56% 30.14 in 10.0 mi WSW 12.7 mph - N/A   Scattered Clouds
10:43 AM 37.4 °F 29.3 °F 23.0 °F 56% 30.14 in 10.0 mi West 12.7 mph - N/A   Scattered Clouds
10:53 AM 37.4 °F 28.9 °F 23.0 °F 56% 30.14 in 10.0 mi West 13.8 mph - N/A   Mostly Cloudy
10:58 AM 37.6 °F 29.1 °F 23.5 °F 57% 30.21 in 10.0 mi WSW 13.8 mph - 0.00 in   Mostly Cloudy
11:59 AM 40.1 °F 33.6 °F 19.0 °F 43% 30.21 in 10.0 mi SW 10.4 mph - N/A   Clear
12:27 PM 41.0 °F 33.9 °F 15.8 °F 36% 30.14 in 10.0 mi WSW 12.7 mph - N/A   Clear
12:46 PM 41.0 °F 33.5 °F 14.0 °F 33% 30.14 in 10.0 mi West 13.8 mph - N/A   Partly Cloudy
12:48 PM 41.0 °F 33.9 °F 14.0 °F 33% 30.14 in 10.0 mi WSW 12.7 mph - N/A   Partly Cloudy
12:50 PM 41.0 °F 34.7 °F 14.0 °F 33% 30.14 in 10.0 mi WSW 10.4 mph - N/A   Partly Cloudy
12:55 PM 41.0 °F 35.2 °F 15.8 °F 36% 30.14 in 10.0 mi WSW 9.2 mph - N/A   Partly Cloudy
12:58 PM 41.0 °F 32.8 °F 15.3 °F 35% 30.20 in 10.0 mi West 16.1 mph - 0.00 in   Partly Cloudy
12:59 PM 41.0 °F 32.8 °F 15.8 °F 36% 30.13 in 10.0 mi WSW 16.1 mph - N/A   Partly Cloudy
1:13 PM 42.8 °F 35.8 °F 14.0 °F 31% 30.13 in 10.0 mi SW 13.8 mph 21.9 mph N/A   Light Drizzle
1:44 PM 44.6 °F 38.4 °F 17.6 °F 34% 30.13 in 10.0 mi SW 12.7 mph 20.7 mph N/A   Light Drizzle
1:58 PM 44.1 °F 36.8 °F 17.6 °F 35% 30.19 in 10.0 mi WSW 16.1 mph - 0.00 in   Light Drizzle
2:15 PM 42.8 °F 34.0 °F 19.4 °F 39% 30.13 in 10.0 mi SW 20.7 mph 21.9 mph N/A   Light Drizzle
2:58 PM 43.7 °F 35.7 °F 18.1 °F 36% 30.19 in 10.0 mi SSW 18.4 mph 25.3 mph 0.00 in   Light Drizzle
3:18 PM 44.6 °F 37.2 °F 15.8 °F 31% 30.13 in 10.0 mi SW 17.3 mph - N/A   Light Drizzle
3:51 PM 42.8 °F 37.0 °F 15.8 °F 34% 30.13 in 10.0 mi SW 10.4 mph - N/A   Scattered Clouds
3:58 PM 42.1 °F 35.7 °F 16.3 °F 35% 30.20 in 10.0 mi SSW 11.5 mph - 0.00 in   Scattered Clouds
4:18 PM 44.6 °F 41.4 °F 14.0 °F 29% 30.13 in 10.0 mi Variable 5.8 mph - N/A   Light Drizzle
4:38 PM 42.8 °F 36.6 °F 17.6 °F 36% 30.14 in 10.0 mi NNE 11.5 mph - N/A   Overcast
4:58 PM 44.2 °F 41.0 °F 18.0 °F 35% 30.19 in 10.0 mi NE 5.8 mph - 0.00 in   Overcast
5:58 PM 40.8 °F 35.6 °F 15.6 °F 36% 30.22 in 10.0 mi WSW 8.1 mph - N/A   Mostly Cloudy
6:09 PM 41.0 °F 34.7 °F 17.6 °F 39% 30.22 in 10.0 mi WSW 10.4 mph - N/A   Unknown
6:29 PM 41.0 °F 33.5 °F 17.6 °F 39% 30.15 in 10.0 mi WSW 13.8 mph - N/A   Overcast
6:58 PM 37.4 °F 31.4 °F 21.7 °F 53% 30.24 in 10.0 mi WSW 8.1 mph - 0.00 in   Mostly Cloudy
7:04 PM 37.4 °F 28.9 °F 21.2 °F 52% 30.16 in 10.0 mi WNW 13.8 mph 20.7 mph N/A   Mostly Cloudy
7:18 PM 35.6 °F 28.6 °F 23.0 °F 60% 30.16 in 10.0 mi NW 9.2 mph - N/A   Scattered Clouds
7:30 PM 35.6 °F 29.9 °F 21.2 °F 56% 30.16 in 10.0 mi NNW 6.9 mph - N/A   Partly Cloudy
7:58 PM 34.2 °F 30.0 °F 20.7 °F 58% 30.25 in 10.0 mi North 4.6 mph - 0.00 in   Scattered Clouds
8:34 PM 32.0 °F 28.7 °F 21.2 °F 64% 30.18 in 10.0 mi South 3.5 mph - N/A   Scattered Clouds
8:42 PM 32.0 °F 28.7 °F 21.2 °F 64% 30.17 in 10.0 mi South 3.5 mph - N/A   Partly Cloudy
8:58 PM 32.9 °F 28.5 °F 21.0 °F 62% 30.26 in 10.0 mi SSW 4.6 mph - 0.00 in   Clear
9:58 PM 29.8 °F 24.9 °F 22.6 °F 75% 30.29 in 10.0 mi West 4.6 mph - N/A   Clear
10:01 PM 28.4 °F 23.3 °F 23.0 °F 80% 30.19 in 10.0 mi West 4.6 mph - N/A   Clear
10:10 PM 28.4 °F - 21.2 °F 74% 30.20 in 10.0 mi SW 2.3 mph - N/A   Clear
10:49 PM 28.4 °F 23.3 °F 23.0 °F 80% 30.20 in 10.0 mi SW 4.6 mph - N/A   Clear
10:58 PM 29.5 °F 24.5 °F 22.1 °F 74% 30.27 in 10.0 mi WSW 4.6 mph - 0.00 in   Clear
11:01 PM 30.2 °F 26.7 °F 21.2 °F 69% 30.20 in 10.0 mi SW 3.5 mph - N/A   Clear
11:39 PM 28.4 °F - 21.2 °F 74% 30.20 in 10.0 mi Calm Calm - N/A   Clear
11:55 PM 28.4 °F - 21.2 °F 74% 30.20 in 10.0 mi Calm Calm - N/A   Clear
11:58 PM 28.2 °F - 21.9 °F 77% 30.28 in 10.0 mi Calm Calm - 0.00 in   Clear